GFSSW_700_rhum_000.txt.gz
RH
11 10 8 8 9 12 12 13 18 16 23 23 23 21 20 18 15 13 13 11 15 17 17 16 16 15 14 20 19 16 14 13 14 13 13 12 14 17 15 14 18 20 25 30 28
17 14 11 10 13 11 13 16 16 22 24 23 22 22 20 18 15 15 14 18 16 18 18 18 19 19 18 19 20 15 13 14 14 14 15 14 13 16 17 16 20 23 30 31 28
13 12 13 13 11 13 14 15 22 22 22 23 25 21 19 17 16 17 23 23 21 23 24 23 23 22 21 18 19 19 16 17 15 11 12 14 15 18 15 22 23 26 24 24 22
16 13 12 13 14 14 16 21 20 22 21 25 26 23 18 14 15 17 23 22 22 24 22 21 22 20 19 24 18 14 9 4 4 5 4 4 4 10 20 18 18 19 19 13 3
15 16 16 15 14 17 21 20 18 18 25 23 21 16 14 12 12 16 16 18 17 10 20 23 25 24 19 25 26 13 16 16 23 17 18 10 10 16 14 15 16 12 15 8 4
19 18 16 16 18 18 18 16 18 20 21 22 16 9 8 10 10 13 12 9 9 12 16 20 20 14 16 19 20 16 18 25 24 25 19 19 14 18 20 19 18 17 17 19 20
20 17 16 17 18 16 15 16 17 20 23 20 17 11 10 6 5 4 3 3 4 4 14 16 18 21 23 24 24 27 25 26 23 28 21 21 18 18 19 22 22 18 19 19 22
19 17 16 17 17 16 14 15 18 21 22 25 15 8 8 7 5 2 2 2 4 12 19 22 25 27 20 21 26 24 24 25 24 25 22 22 23 24 23 20 18 22 22 20 24
22 19 18 16 14 15 15 16 16 20 30 28 24 19 7 5 2 3 2 3 16 21 24 27 29 25 26 16 26 17 24 23 24 25 26 26 27 23 23 27 26 25 24 22 26
21 19 16 14 14 15 15 15 18 24 33 27 22 20 12 7 5 3 3 4 8 16 25 25 30 32 30 15 18 21 21 22 27 27 23 22 23 23 26 24 22 21 22 23 24
16 14 14 14 14 16 20 18 17 17 24 32 24 33 17 8 8 4 4 10 18 18 19 23 28 30 26 25 26 27 19 27 29 29 21 19 25 23 24 26 25 22 20 24 21
14 14 14 14 13 14 17 21 29 15 24 22 14 14 6 7 13 8 6 7 16 25 23 25 25 34 24 27 29 28 20 28 18 23 29 28 19 20 20 25 24 22 12 18 19
13 12 13 13 14 24 28 32 19 14 16 13 10 10 11 10 16 9 7 8 15 20 24 22 30 32 20 18 24 28 20 21 31 29 34 35 24 24 24 24 24 22 21 24 26
17 14 13 13 11 11 28 25 26 36 36 36 28 22 16 20 22 19 10 14 18 18 12 20 30 31 16 29 25 21 31 29 31 36 40 41 42 28 25 24 25 26 25 28 37
18 14 11 11 12 10 15 14 20 31 58 36 27 27 37 33 21 29 24 26 14 14 22 29 29 35 36 37 41 35 30 30 30 39 42 37 40 30 30 31 28 27 29 36 41
21 22 18 18 13 9 16 20 20 69 63 39 36 41 40 34 30 43 37 36 27 36 40 43 38 35 39 41 40 44 37 31 39 39 48 45 44 34 36 35 30 32 38 40 40
25 20 22 22 20 15 19 30 63 47 44 42 38 31 37 37 35 41 44 36 35 27 33 42 41 43 45 41 39 46 40 49 54 67 65 36 39 40 38 40 40 44 50 52 52
37 37 30 24 20 20 23 48 52 44 43 41 35 39 41 38 39 46 45 43 43 36 43 47 46 50 50 48 59 57 53 60 78 84 64 41 43 43 44 42 50 52 58 59 59
35 33 36 36 30 25 27 61 50 49 46 44 41 42 45 41 43 47 52 53 52 45 42 59 48 52 51 51 58 58 56 59 62 64 74 53 46 42 38 45 54 57 56 60 64
43 41 34 33 33 28 46 42 53 49 35 46 46 42 48 46 45 49 53 59 61 52 47 62 62 48 45 50 59 58 60 63 71 85 94 63 54 48 42 46 52 59 61 57 67
49 46 39 33 32 35 53 48 37 28 29 48 47 47 49 47 49 55 60 62 64 52 50 62 57 41 52 65 62 55 66 68 71 76 91 97 71 53 49 64 56 57 60 64 67
59 46 42 36 45 45 51 46 39 35 33 35 39 49 51 49 59 60 62 64 67 67 58 61 58 55 62 62 59 67 66 72 87 81 83 84 76 51 67 50 64 68 71 72 63
57 52 48 53 50 52 59 49 42 49 49 46 45 44 44 49 62 67 70 72 78 73 62 66 65 59 49 64 57 49 49 60 78 84 84 86 67 50 62 75 80 74 68 64 64
51 50 54 63 54 47 49 54 51 49 46 44 45 49 58 73 74 73 65 76 78 71 69 68 64 67 70 70 84 69 36 60 72 81 81 82 76 66 72 79 76 66 64 64 66
47 52 56 81 70 70 71 67 70 63 53 47 71 73 64 57 62 59 66 73 64 66 70 71 82 81 77 91 92 68 68 63 71 60 91 67 71 67 71 75 76 74 70 70 70
33 43 49 61 62 75 72 72 71 75 73 63 69 73 73 66 66 67 64 68 66 45 44 55 64 80 40 55 83 64 51 56 57 61 64 65 70 73 74 74 79 75 74 80 76
33 32 35 46 51 47 48 51 65 68 68 64 62 53 58 53 55 58 52 40 36 30 31 50 55 82 88 82 77 70 52 52 58 56 72 79 74 68 75 85 84 86 86 89 72

GFSSW_700_rhum_003.txt.gz
RH
8 8 9 8 7 7 12 13 14 18 22 24 22 22 20 17 12 12 15 17 17 18 18 10 12 16 19 18 16 12 11 13 12 12 12 13 15 14 15 17 17 20 25 25 23
11 9 8 7 9 13 14 14 18 24 24 24 23 22 19 16 14 18 18 18 19 19 19 18 17 17 17 19 15 12 12 13 14 15 14 13 14 15 16 17 20 22 24 21 20
15 13 12 12 13 14 14 16 23 25 26 25 26 24 20 17 16 14 14 17 17 18 21 21 21 16 15 17 17 16 15 16 13 12 13 15 15 13 10 15 15 14 18 16 8
14 15 15 14 13 14 14 22 26 27 28 28 27 23 17 16 19 18 16 18 20 21 25 19 18 13 12 13 13 6 4 17 13 15 5 6 6 9 8 7 5 9 17 16 14
18 15 13 13 14 14 20 24 25 24 27 25 22 17 17 14 14 18 17 17 17 20 19 13 11 9 10 11 12 15 18 20 20 18 19 19 16 18 18 17 12 16 18 19 21
16 16 15 14 15 20 21 23 21 24 25 18 15 12 12 10 8 11 14 17 13 10 8 8 17 15 16 18 18 17 19 23 24 24 20 18 17 18 18 17 17 18 19 20 22
19 17 16 16 18 21 21 22 24 26 20 13 13 10 9 7 6 7 8 10 8 9 8 11 17 21 22 24 26 24 23 24 26 25 24 22 22 18 27 26 18 20 22 21 23
19 18 18 20 22 21 20 18 16 17 14 11 8 9 7 6 6 5 5 4 12 17 15 18 20 20 17 19 24 24 25 24 23 22 25 25 22 26 25 26 23 21 24 23 24
20 19 20 18 16 14 14 16 18 17 18 12 11 5 6 4 4 2 2 5 11 18 22 24 19 19 20 16 24 14 24 24 24 26 29 28 26 23 26 24 21 20 24 25 24
18 18 18 17 15 14 14 16 18 22 25 22 15 11 7 2 2 2 2 12 19 22 26 27 28 26 17 17 18 18 16 18 29 30 27 23 20 20 27 24 23 22 22 26 24
18 17 17 15 15 15 13 13 20 26 24 24 29 20 10 6 7 5 4 5 9 14 22 24 28 31 30 22 20 23 27 20 29 27 21 24 24 19 21 22 23 23 20 19 24
16 14 15 15 15 15 14 12 16 22 26 11 18 6 6 8 8 5 5 10 18 19 19 22 25 32 27 18 26 30 28 19 14 25 28 32 22 21 21 24 23 22 17 17 20
17 16 14 12 14 15 13 16 13 17 16 13 14 11 10 10 14 8 7 9 17 24 25 23 30 32 21 26 25 23 21 25 33 31 39 34 24 26 25 24 23 24 20 26 26
13 12 11 12 14 22 27 23 14 16 31 27 20 20 20 17 24 16 12 21 26 20 15 26 29 34 35 32 32 28 29 29 33 38 41 36 34 34 28 28 28 28 29 34 37
14 11 11 10 12 9 24 16 23 41 46 32 30 32 34 23 25 30 27 28 24 16 28 34 33 34 34 41 40 35 27 31 32 43 43 40 39 40 38 34 33 32 33 38 40
17 14 12 14 10 17 14 17 20 52 50 40 42 39 35 34 34 41 36 34 29 42 43 41 38 37 44 43 46 41 30 31 42 45 48 48 46 44 39 37 34 37 39 45 53
23 22 20 16 11 17 22 38 59 43 45 42 37 35 39 36 38 44 41 35 33 30 33 46 42 46 48 45 47 49 29 38 52 65 66 47 46 47 46 52 50 48 53 57 59
24 22 22 21 15 20 30 68 44 46 46 43 36 42 37 40 44 46 49 43 45 38 45 42 45 49 52 52 60 55 53 58 68 85 68 46 49 52 56 60 56 55 64 62 62
36 37 31 21 21 24 32 52 48 46 46 42 42 41 43 42 44 47 47 52 53 45 45 46 45 52 57 54 57 60 61 61 63 68 79 57 52 50 45 50 66 63 57 63 65
36 33 35 34 30 26 37 38 49 48 36 44 44 47 46 46 47 50 51 60 61 52 47 56 53 45 49 60 58 61 63 62 65 84 90 63 52 47 52 59 52 61 66 70 76
42 39 33 32 31 37 48 41 44 36 39 47 45 47 47 46 47 52 58 62 63 55 51 52 50 44 55 59 63 60 63 70 68 72 88 96 68 56 52 64 68 64 70 74 75
50 41 36 33 39 42 47 40 34 32 35 42 49 45 51 49 56 58 62 64 62 58 56 54 51 46 65 61 60 63 68 62 71 70 72 76 74 59 66 65 68 76 73 72 71
61 41 37 39 47 46 46 41 42 47 47 45 46 48 46 44 49 58 66 68 68 65 61 58 58 56 64 67 60 56 52 63 76 87 82 84 69 53 59 68 65 67 69 72 69
57 50 52 60 52 57 50 45 49 46 45 43 42 44 46 55 60 62 67 66 68 71 62 59 61 61 63 60 60 47 59 66 83 99 91 81 80 69 73 67 72 76 77 79 85
50 48 52 59 48 48 49 51 54 50 48 46 48 47 47 49 55 57 58 62 69 64 49 60 58 50 57 75 75 52 53 48 62 62 100 65 70 57 64 72 77 82 90 96 83
42 46 48 52 54 64 66 63 58 59 58 53 48 50 48 46 47 56 56 49 41 30 41 53 53 47 36 50 57 48 40 50 42 48 56 63 58 62 65 80 90 93 96 90 78
27 33 40 45 52 64 69 61 69 63 58 56 58 59 55 54 52 47 41 38 38 38 39 47 51 73 80 65 81 53 49 51 58 59 62 67 63 63 73 76 68 59 66 67 62

GFSSW_700_rhum_006.txt.gz
RH
14 10 10 9 8 7 7 7 15 20 22 25 24 21 16 13 15 11 15 16 17 14 11 13 19 19 16 13 11 11 11 12 12 12 12 13 13 14 14 16 17 20 23 23 20
12 9 9 9 8 7 7 14 19 22 24 26 24 19 14 17 20 21 18 19 20 20 11 14 18 18 15 14 13 11 11 12 13 14 14 14 14 16 15 14 16 16 10 8 4
15 11 10 8 8 8 14 18 22 25 29 26 23 18 15 18 17 18 19 18 20 22 20 20 17 15 15 15 14 14 14 14 10 14 16 16 16 13 10 9 10 10 13 16 14
18 16 12 11 11 14 16 22 26 30 29 27 24 18 16 15 21 18 17 17 18 24 22 23 17 13 12 12 5 7 15 14 15 11 5 8 10 13 13 11 14 18 20 20 22
16 14 13 14 14 16 19 27 29 29 31 26 24 20 18 20 19 16 13 16 18 21 20 15 13 11 9 7 11 17 16 17 21 20 20 18 19 18 18 17 14 20 19 21 23
16 15 15 14 15 17 25 29 29 32 31 30 23 19 17 16 14 15 12 14 19 21 18 10 11 15 12 12 16 18 21 24 25 26 21 18 18 18 21 23 18 20 21 20 23
18 17 16 16 16 25 28 26 29 32 28 22 16 14 13 11 13 12 15 18 16 13 13 13 16 16 20 22 21 22 22 24 24 23 24 23 22 20 26 26 22 20 23 22 23
20 19 17 17 23 25 25 26 28 27 24 17 14 12 10 11 11 11 10 13 13 11 12 16 19 20 19 20 23 23 24 24 23 23 24 27 22 24 27 28 28 20 23 24 24
23 19 19 23 24 21 21 21 22 21 16 10 10 7 6 6 6 5 6 8 15 13 17 19 19 17 16 19 23 17 20 19 26 28 29 30 28 23 25 25 24 24 22 26 25
26 26 24 22 20 19 19 20 19 16 11 8 8 11 6 6 3 2 3 7 16 20 23 25 21 20 21 23 15 19 22 22 21 29 30 26 20 21 21 24 24 23 22 24 27
27 24 21 20 18 17 19 19 19 21 22 25 23 14 7 7 5 3 3 12 17 21 25 26 28 30 31 18 21 25 26 26 19 19 21 24 29 22 19 23 25 25 22 19 26
22 20 18 17 17 17 17 17 24 21 17 20 10 5 6 10 6 4 4 6 10 17 18 18 26 32 28 22 23 24 25 23 20 26 28 32 27 25 24 24 24 23 19 20 25
19 16 14 14 13 13 13 17 20 21 10 13 13 11 11 14 11 8 7 7 12 17 20 23 32 35 24 30 29 27 25 29 32 27 36 36 28 30 27 26 27 25 23 23 26
18 15 13 14 16 16 16 16 13 10 16 19 16 24 20 20 21 17 13 18 25 22 23 33 30 34 32 33 35 32 34 34 34 36 42 39 36 37 33 30 30 31 30 32 36
15 14 16 17 23 19 23 18 10 15 42 28 32 34 28 18 26 24 25 21 22 20 29 33 34 35 36 41 38 33 31 31 32 37 45 45 40 40 39 38 36 35 35 38 45
16 15 14 13 13 18 23 16 19 35 41 42 38 37 35 31 30 40 32 34 37 41 41 41 40 39 44 46 42 36 30 36 47 46 50 50 48 45 45 44 44 40 42 50 55
17 14 15 13 17 15 16 20 42 37 41 40 34 40 36 38 39 43 38 34 33 35 33 44 43 47 51 43 50 44 30 35 51 63 65 48 48 48 52 48 50 50 51 56 62
26 21 19 12 14 22 31 63 40 47 46 41 39 42 38 40 46 47 45 42 38 36 41 44 47 50 51 47 59 50 46 57 59 87 72 47 50 53 60 54 55 53 57 60 59
26 24 23 16 15 25 51 56 45 46 45 40 42 43 41 39 44 47 46 49 48 43 43 47 50 54 47 55 57 53 56 59 61 67 81 55 54 55 56 59 66 63 61 63 65
38 34 24 22 23 28 38 38 46 47 47 44 42 44 45 47 47 48 53 59 56 52 46 46 47 46 55 61 61 58 61 60 61 88 87 60 48 48 60 64 61 58 67 73 77
36 34 34 31 28 31 39 38 46 47 41 44 46 44 47 48 49 49 56 60 61 55 47 48 46 42 54 61 67 66 65 67 64 70 90 97 64 55 62 58 60 64 68 72 80
44 38 33 32 37 39 42 41 39 32 34 39 45 46 45 47 51 53 57 60 64 60 45 44 45 40 37 63 67 65 62 59 58 67 77 80 73 55 62 60 62 66 60 68 87
50 41 36 35 37 38 44 38 34 34 35 38 40 44 47 46 49 59 63 64 61 60 57 44 47 43 40 61 65 64 67 72 79 94 90 90 65 56 60 66 66 71 75 79 82
58 41 38 39 44 47 42 41 45 48 46 45 43 42 43 47 52 60 62 65 64 60 60 49 52 56 49 43 44 49 51 68 88 100 91 83 78 45 62 64 66 65 81 86 83
56 46 45 52 53 52 46 44 47 43 42 41 43 43 46 49 48 50 57 60 59 53 43 46 50 41 40 36 34 35 41 48 72 62 100 53 65 54 61 65 69 70 81 76 70
48 46 47 47 46 49 50 49 48 47 49 47 43 44 45 43 46 40 37 31 31 31 35 45 43 40 34 38 48 45 42 51 47 52 56 60 55 50 62 79 80 76 82 74 78
40 43 46 49 54 53 51 45 42 43 47 44 44 48 45 46 43 40 37 35 36 37 41 42 42 50 45 48 60 45 43 46 53 53 48 53 50 57 75 79 78 77 74 71 77

GFSSW_700_rhum_009.txt.gz
RH
14 11 11 10 9 10 7 7 6 12 20 24 21 20 13 15 12 16 16 14 11 9 15 18 18 16 13 12 12 12 11 12 12 12 12 13 14 14 13 16 19 21 22 19 17
16 15 11 9 9 8 7 7 12 16 25 24 21 18 19 23 22 23 17 18 18 8 17 19 18 16 13 12 11 10 11 12 12 14 13 14 15 15 12 13 14 15 8 4 2
16 13 10 9 9 8 8 14 16 24 28 24 22 16 22 20 22 18 18 21 24 12 16 19 18 17 13 13 12 12 13 13 12 13 14 14 14 11 8 7 8 12 17 19 14
20 17 12 10 9 10 15 17 22 29 26 23 19 16 20 19 25 20 20 22 26 22 22 19 16 14 12 6 13 10 13 14 15 5 8 10 13 15 15 10 17 20 21 22 23
19 17 14 12 12 16 17 21 30 29 26 23 20 17 18 18 20 18 18 22 25 25 20 13 13 12 9 7 13 18 18 20 21 21 20 14 17 17 19 13 18 19 21 23 24
18 16 14 15 17 17 22 30 30 30 28 26 21 19 17 20 23 17 17 20 24 24 22 16 11 8 8 14 17 20 22 24 24 23 21 18 18 19 22 25 20 20 20 21 24
19 17 17 17 18 23 30 31 35 35 33 24 20 19 19 23 19 17 14 18 20 20 19 15 15 13 10 14 18 21 24 25 24 25 24 22 22 20 24 27 26 20 22 22 23
19 18 17 19 24 29 30 32 34 32 25 22 19 20 18 19 19 18 17 21 19 18 16 18 19 18 20 20 21 22 23 24 24 25 25 25 24 26 26 26 28 25 22 24 24
22 20 23 27 29 29 27 29 29 24 22 19 18 17 13 13 12 12 12 14 14 15 19 19 19 15 17 21 22 19 18 18 26 28 30 30 26 25 22 22 26 27 23 24 26
28 28 30 28 26 27 27 24 25 20 20 15 13 14 9 9 6 5 7 10 16 16 20 16 16 17 22 17 15 17 21 23 23 22 24 25 21 26 18 21 23 25 22 24 26
34 31 27 27 25 23 23 26 27 29 29 25 13 9 8 6 3 2 5 8 15 16 19 22 22 27 28 17 16 19 22 24 21 20 19 22 30 25 21 21 23 26 23 22 26
31 29 26 23 22 21 22 24 29 21 24 13 7 8 10 7 6 4 4 8 17 19 17 21 24 29 26 20 25 26 24 22 24 25 24 31 29 26 26 27 26 24 23 19 25
26 23 22 22 22 22 22 30 22 14 15 16 14 13 12 14 8 7 7 8 14 18 19 21 30 30 30 30 30 31 29 30 30 26 29 37 33 31 27 27 29 28 26 22 27
22 18 16 18 17 16 17 19 20 10 12 16 21 24 16 17 16 15 11 14 15 18 26 28 29 32 34 34 33 29 32 33 36 37 41 40 34 38 33 31 32 33 31 31 36
19 16 16 16 18 15 16 14 14 14 39 29 31 29 23 16 21 26 22 17 15 18 21 28 32 36 36 40 37 37 34 34 34 39 45 45 40 43 41 38 37 36 36 40 44
17 16 18 23 24 26 24 14 12 22 36 38 38 36 29 27 26 32 32 28 34 39 40 39 40 39 42 45 43 40 33 40 48 50 51 50 47 50 46 45 43 40 45 49 58
15 15 14 15 17 23 23 17 24 27 35 34 40 39 32 34 34 37 35 34 32 36 34 42 43 47 47 40 46 42 33 38 48 56 54 48 48 56 55 52 49 50 58 61 62
16 14 16 14 20 17 17 39 33 44 42 36 37 39 36 39 43 41 42 36 35 35 36 40 47 46 44 44 52 48 44 50 54 63 61 48 55 59 58 55 52 61 62 62 60
20 21 16 13 20 24 52 44 44 43 41 40 42 40 39 39 46 46 45 46 46 43 43 43 48 44 46 54 56 52 52 55 58 71 77 54 59 62 61 60 63 64 61 62 68
28 26 24 13 21 35 58 39 44 45 44 39 41 42 45 47 48 47 52 56 52 46 42 45 50 49 59 61 60 58 60 56 57 74 68 56 59 49 57 64 64 58 58 64 70
36 28 25 23 26 33 39 36 45 47 46 45 43 42 46 48 49 50 56 58 56 50 35 36 37 44 51 62 66 66 67 65 59 72 80 91 60 44 47 51 61 65 64 62 70
38 35 31 26 32 36 38 39 46 45 44 42 46 43 46 47 51 53 55 57 59 53 43 29 29 31 38 60 68 68 67 63 60 60 71 82 65 47 54 54 65 65 60 68 70
45 38 34 32 39 38 41 40 37 34 35 39 41 43 46 46 46 53 59 61 61 56 51 39 32 30 40 62 64 63 57 55 75 87 86 88 63 49 53 62 70 62 72 76 88
51 44 37 36 43 42 40 37 34 38 40 40 41 45 43 43 46 54 59 60 61 54 48 37 31 32 31 30 32 36 37 55 79 94 83 75 68 38 51 66 70 76 83 97 90
58 43 40 44 46 45 41 37 43 46 44 42 42 41 41 40 41 40 40 38 32 32 34 30 27 28 29 31 34 36 40 48 64 63 97 53 62 45 62 68 69 68 76 77 82
59 50 45 49 50 50 45 44 44 41 40 41 39 38 40 36 33 31 29 26 22 22 30 35 40 35 35 40 40 40 30 49 53 53 63 67 56 59 64 65 74 85 92 95 95
51 50 52 48 48 45 43 45 47 45 43 41 38 38 35 29 31 30 27 26 28 29 33 37 39 49 48 46 50 41 45 47 50 56 60 58 60 65 68 82 90 93 95 94 82

GFSSW_700_rhum_012.txt.gz
RH
14 13 10 7 9 7 12 7 8 6 11 21 25 23 14 11 11 13 10 6 12 13 18 18 14 13 14 13 13 11 12 12 13 13 16 14 16 14 15 24 16 21 38 23 18
16 15 12 11 9 9 9 8 7 10 21 25 23 17 20 16 22 22 13 7 13 18 18 16 15 13 13 12 13 14 12 14 13 15 15 15 16 16 21 24 20 18 14 9 7
18 16 13 9 9 10 8 8 11 19 26 24 22 17 16 17 24 20 22 14 10 18 18 17 15 13 12 12 11 13 14 12 12 12 16 15 15 11 18 21 22 24 13 10 5
17 14 10 10 10 10 9 12 20 25 26 23 20 16 21 18 33 21 23 27 12 15 16 16 17 14 14 14 12 10 11 13 6 8 11 18 15 17 19 17 16 21 21 22 22
18 16 12 11 11 10 13 20 27 28 25 24 18 18 21 24 22 19 23 26 22 23 18 15 16 13 14 10 13 18 19 19 20 20 16 16 17 20 14 15 18 20 22 23 25
19 18 15 13 13 16 21 28 30 28 27 24 18 16 20 31 21 18 20 26 24 26 21 14 12 11 8 15 21 21 22 23 24 23 20 21 20 20 23 23 17 19 20 22 24
19 17 15 16 18 22 29 32 32 32 29 24 20 18 17 22 20 15 18 20 24 24 21 19 12 16 12 17 18 21 25 26 24 26 22 21 23 24 24 26 26 20 21 22 22
19 19 18 18 22 30 33 36 38 35 28 23 21 19 26 20 16 13 15 17 21 21 23 23 20 15 15 20 23 25 25 22 25 25 24 25 22 27 25 26 26 27 21 23 23
22 20 20 24 30 32 36 39 34 25 21 20 20 19 19 16 16 16 17 19 18 20 25 22 17 15 20 23 20 21 16 21 28 26 27 27 27 32 22 21 25 26 26 23 24
25 25 27 32 32 34 36 31 25 21 21 21 19 19 11 11 10 11 13 15 21 24 23 21 18 21 21 15 13 19 19 21 23 25 21 29 30 21 20 19 28 27 24 23 26
29 30 31 31 31 34 30 26 29 30 29 29 22 14 10 6 4 5 8 17 22 23 28 21 24 27 23 13 13 14 24 26 27 17 20 31 35 26 23 22 24 26 25 25 28
32 33 31 30 30 29 26 26 31 27 20 16 14 11 9 6 4 4 6 11 16 21 16 19 25 24 24 16 19 25 29 29 32 24 24 39 34 26 26 28 27 27 24 22 27
34 31 30 28 28 25 27 29 23 18 29 17 16 16 13 13 7 6 8 10 16 17 19 25 25 25 26 28 34 33 35 43 41 40 28 39 36 34 26 26 28 27 24 24 31
28 28 26 26 25 25 31 21 17 14 30 24 23 18 14 15 15 10 13 12 15 20 25 25 28 30 34 36 34 37 33 32 32 41 27 33 25 39 31 30 32 32 30 34 37
25 23 23 22 22 20 27 23 14 19 32 25 26 24 16 21 23 25 21 17 17 19 21 27 31 36 45 39 36 50 35 33 34 45 42 41 30 42 39 40 44 40 38 39 44
19 18 19 21 17 18 17 20 14 32 38 38 35 36 29 26 26 30 28 26 28 31 33 33 38 38 40 39 35 39 34 38 48 54 42 49 41 40 44 51 50 41 42 46 49
18 16 16 19 18 18 19 15 37 39 31 39 39 34 30 32 32 34 33 32 38 42 45 44 41 43 40 49 47 52 48 38 49 47 42 46 42 56 55 48 46 44 47 53 60
16 16 18 18 16 25 23 27 41 40 44 34 36 36 35 38 39 38 36 42 32 33 47 44 46 47 41 43 50 46 55 53 50 46 40 51 37 51 54 53 51 51 58 62 61
15 13 13 14 21 20 28 41 45 44 35 35 40 44 39 40 43 41 39 41 37 34 52 53 52 42 45 49 48 57 60 48 58 57 68 44 53 51 57 62 58 61 62 58 58
17 18 14 18 20 29 61 38 38 36 37 38 44 42 49 50 51 50 56 46 44 35 33 37 57 45 47 49 55 57 53 57 56 71 43 26 34 33 62 69 64 65 60 65 61
28 25 14 22 29 58 54 36 40 41 39 39 39 40 44 47 49 47 49 49 44 39 27 22 32 44 39 58 64 67 66 60 58 64 51 49 30 48 62 55 55 59 65 65 59
29 29 16 18 28 38 40 37 42 45 44 42 43 42 44 47 47 46 51 48 44 38 36 25 20 42 48 41 55 61 69 66 56 54 68 75 49 50 46 49 56 70 80 67 68
37 30 27 28 35 35 38 40 42 43 44 41 42 41 42 44 46 47 48 48 46 38 35 26 30 40 46 54 63 72 72 50 52 67 74 76 50 54 58 64 73 85 68 67 76
40 43 35 32 39 39 37 40 40 40 39 37 37 42 44 41 39 44 47 43 36 27 22 20 22 28 30 37 43 56 60 69 74 82 65 62 58 59 59 65 75 85 66 85 93
46 44 37 39 42 40 41 38 35 37 39 41 44 41 38 38 38 37 34 27 21 19 19 21 25 29 32 26 27 66 54 63 65 74 78 69 63 65 70 75 60 63 93 98 95
55 46 41 39 43 46 42 39 41 43 42 41 38 38 37 33 30 23 21 20 20 19 26 32 39 31 30 30 33 39 37 64 62 67 80 77 77 78 68 64 70 75 95 98 96
63 52 44 48 48 48 45 43 46 42 41 40 40 37 35 28 23 21 20 21 24 31 34 36 36 42 48 41 43 54 44 51 61 66 77 77 74 66 74 89 90 88 94 93 95

GFSSW_700_rhum_015.txt.gz
RH
14 12 11 8 5 8 6 12 10 8 7 12 22 24 20 11 8 9 35 14 14 13 15 14 14 15 18 18 15 12 12 12 12 12 14 14 14 16 25 31 33 36 43 56 24
16 15 14 11 8 9 8 13 7 8 9 20 25 22 15 12 16 35 9 10 13 18 18 16 14 15 17 17 14 13 10 11 12 13 13 13 13 15 23 25 29 41 38 61 17
18 17 15 13 11 10 9 9 8 9 18 26 24 17 13 19 35 32 16 12 18 18 16 16 15 18 17 15 15 12 12 14 13 12 11 11 12 14 16 20 25 31 40 62 3
19 18 16 14 10 10 10 8 9 17 26 26 21 16 17 29 32 27 22 14 19 18 18 15 21 17 14 14 14 13 14 12 11 12 13 12 14 16 14 15 19 23 43 54 14
19 18 14 11 11 10 9 10 17 25 28 27 18 21 20 36 34 25 29 12 16 15 23 23 20 15 13 12 12 13 14 13 13 13 16 17 19 21 17 18 18 30 45 59 70
20 18 14 11 10 10 12 18 25 30 29 26 17 22 27 37 22 23 28 24 32 26 22 21 20 18 14 13 17 19 22 22 23 23 18 21 22 25 22 20 20 30 40 47 55
19 18 14 11 11 15 20 27 31 31 29 22 17 19 27 39 20 21 25 23 20 30 26 21 23 18 20 22 24 23 24 26 27 27 25 24 22 22 24 24 22 24 32 42 48
19 16 13 13 18 22 29 32 33 32 27 23 18 16 43 18 29 16 17 19 21 20 18 13 9 27 25 23 22 22 22 22 26 27 27 26 22 22 26 26 24 26 26 34 42
17 16 18 20 25 31 33 35 36 30 25 22 19 27 34 16 16 12 12 26 19 20 24 21 22 26 18 23 21 20 18 18 26 27 28 24 21 25 31 29 26 25 29 30 37
20 20 22 28 33 36 38 35 28 24 22 19 17 34 19 31 13 14 16 16 30 24 26 24 25 22 18 18 16 14 13 15 15 26 21 21 21 25 29 18 23 27 26 29 34
22 26 32 33 35 39 34 32 27 24 30 42 30 37 15 8 8 11 14 19 26 33 28 26 23 22 26 24 21 18 17 17 19 28 20 23 24 26 32 31 35 34 34 33 38
33 34 33 34 36 34 30 64 41 39 32 29 19 15 7 11 28 19 18 32 31 24 26 20 24 30 24 27 24 24 22 22 27 29 24 26 24 30 34 37 36 37 40 47 48
38 34 32 34 31 29 32 40 34 28 33 31 30 34 12 33 27 14 26 28 24 21 18 23 30 20 31 29 29 29 27 35 34 32 31 29 26 30 35 35 37 39 41 45 52
38 33 30 30 26 30 32 26 20 33 29 30 30 23 21 20 19 7 7 24 25 22 23 29 19 33 32 35 35 30 40 40 38 33 24 29 22 30 32 37 41 45 49 52 55
37 36 33 29 37 43 25 23 17 32 33 29 32 15 15 36 27 20 13 22 28 30 23 35 37 39 38 43 31 39 27 43 41 35 29 26 21 35 32 34 42 48 55 60 40
32 30 30 30 24 28 21 18 18 51 36 35 36 40 39 34 25 32 28 19 30 32 33 39 32 46 49 42 30 36 48 45 44 37 32 32 28 32 34 40 44 51 62 66 54
26 26 24 24 24 25 24 19 35 46 37 36 36 40 41 41 36 44 45 46 39 38 39 40 46 51 34 46 51 43 39 37 42 39 37 38 28 44 49 50 50 58 68 72 49
22 21 23 20 18 19 17 54 50 41 31 37 38 40 41 43 50 47 42 44 42 41 34 34 45 49 38 43 51 46 46 48 44 40 31 38 25 40 53 58 57 62 69 66 59
21 21 25 24 19 23 36 59 40 34 38 37 37 36 42 43 45 50 52 50 32 37 43 39 44 45 35 48 45 49 48 46 56 55 57 27 33 50 56 63 64 68 73 78 80
20 20 22 18 22 27 78 59 48 42 40 37 35 41 38 42 43 46 50 37 44 27 34 42 48 45 48 32 53 51 47 50 46 60 39 21 20 34 56 56 64 63 68 74 79
20 36 15 19 24 43 65 55 43 30 43 46 44 44 44 48 46 50 54 43 38 33 30 38 43 48 41 51 46 51 51 54 42 48 46 38 28 41 44 53 60 64 68 76 84
28 69 20 22 51 72 64 55 41 36 36 40 56 52 51 56 56 57 57 65 34 28 59 19 48 44 36 34 26 58 52 49 50 41 49 58 51 50 53 57 62 67 72 87 91
63 72 18 26 66 56 51 36 47 44 49 50 41 46 55 61 56 64 63 36 34 30 58 24 56 38 35 59 64 53 55 53 61 64 54 59 49 50 58 68 62 60 74 87 99
74 64 23 22 69 58 48 43 40 41 42 40 39 38 43 52 49 55 44 33 25 17 15 15 55 46 37 34 38 42 42 43 49 61 59 52 47 46 51 64 66 70 78 90 94
62 72 49 38 38 64 61 56 57 44 41 39 41 58 60 55 64 67 70 25 20 15 14 24 58 57 47 43 42 45 48 47 44 45 49 54 54 55 67 75 82 88 95 99 100
64 46 40 40 56 64 49 58 56 48 43 50 61 62 61 44 47 58 58 53 54 22 59 23 66 30 30 49 48 52 49 47 46 51 55 55 57 66 76 79 91 98 98 96 76
50 44 42 38 42 60 52 63 61 44 42 62 63 57 55 57 33 23 16 20 22 58 57 33 34 40 43 38 40 55 51 48 51 55 63 69 69 77 79 95 95 98 98 89 83

GFSSW_700_rhum_021.txt.gz
RH
16 14 12 11 9 8 6 8 12 13 14 13 13 9 15 20 13 8 16 19 7 12 14 10 8 18 16 16 18 19 17 14 18 23 26 24 26 23 26 34 33 35 41 41 24
15 16 16 14 11 10 6 7 9 9 11 8 9 16 21 11 26 25 19 9 14 14 15 17 19 19 18 18 17 17 14 12 13 17 14 13 14 14 18 26 30 34 50 50 28
17 19 18 16 14 12 8 6 8 11 8 8 16 22 13 37 46 33 8 14 15 18 17 19 18 18 17 17 14 14 13 12 12 12 12 13 13 18 23 20 25 20 41 53 40
20 21 19 17 15 13 9 7 8 11 8 14 23 16 37 43 44 24 10 14 19 17 17 16 16 16 15 14 14 14 11 11 10 10 10 10 12 14 18 19 25 30 27 16 6
21 21 20 18 16 12 9 9 11 8 13 23 20 21 39 44 35 26 12 18 19 19 17 20 22 20 18 14 13 12 11 10 7 10 12 13 12 16 18 21 23 29 32 27 23
21 21 19 16 14 12 10 10 8 13 24 24 16 34 46 48 37 18 14 21 25 23 24 23 22 18 11 11 12 12 12 10 5 10 11 14 15 17 15 16 23 31 36 46 47
22 20 17 13 10 10 10 9 14 26 26 21 14 27 44 40 33 28 21 30 31 31 27 22 18 16 17 17 17 16 19 20 20 15 10 18 21 22 17 18 17 21 38 46 46
21 19 16 11 11 11 11 18 27 28 26 18 17 32 48 36 28 27 20 20 27 30 28 21 17 19 26 15 18 19 21 22 22 23 23 15 20 20 22 21 20 21 24 39 45
21 20 16 13 12 16 24 29 30 27 23 16 19 33 53 19 19 26 19 24 22 25 13 15 22 23 27 19 19 20 21 22 23 24 24 24 22 22 22 23 24 23 24 27 36
20 18 16 16 23 29 30 32 29 26 20 17 28 41 35 31 16 11 21 25 20 19 18 19 23 27 20 22 22 20 16 21 25 23 24 23 21 21 26 28 28 26 26 25 32
18 16 19 27 30 34 33 32 28 23 19 28 39 28 25 26 18 10 12 20 20 24 27 24 28 27 24 22 21 17 18 21 24 24 22 19 18 26 27 27 27 26 25 27 28
21 23 29 33 36 31 33 30 62 44 44 37 37 36 25 29 22 21 13 20 25 29 30 29 28 28 22 17 11 16 21 28 28 30 22 19 24 26 27 28 32 33 32 31 29
26 31 36 38 34 63 92 72 52 44 35 33 32 25 28 31 27 15 31 32 29 29 27 22 28 12 22 26 16 30 24 25 30 27 26 20 25 28 29 32 34 35 35 36 37
34 36 41 39 52 70 64 47 38 39 32 31 27 14 29 35 28 14 25 27 26 25 24 29 27 23 27 29 26 34 33 32 30 24 31 29 30 31 34 37 39 44 47 48 45
36 39 43 40 51 56 45 35 42 46 58 32 29 26 25 40 30 9 20 24 26 24 21 32 33 37 35 38 35 34 32 23 23 26 35 26 30 34 37 40 42 45 48 47 44
36 42 42 43 45 56 39 35 42 61 42 32 24 24 23 34 39 38 9 31 27 24 28 34 34 31 37 26 33 36 39 39 39 40 45 44 37 38 38 41 47 51 50 51 56
37 41 40 49 40 56 32 29 44 54 31 29 33 34 36 36 38 35 23 34 41 34 35 39 42 36 29 44 47 40 41 47 56 74 67 42 41 52 43 43 45 48 55 62 64
41 38 38 54 38 35 26 39 60 33 29 26 31 35 37 38 38 38 37 37 42 42 41 42 48 45 27 44 44 41 45 44 63 81 56 30 48 57 50 51 56 61 67 72 68
42 40 37 39 40 30 22 59 53 37 31 32 35 37 39 40 38 44 43 43 34 38 42 46 48 39 21 15 40 44 45 37 48 49 55 44 55 54 56 58 64 62 66 75 79
35 37 37 34 35 30 28 59 55 36 34 32 34 34 36 36 41 42 44 46 29 45 40 52 46 44 44 50 46 37 30 47 42 63 56 39 54 55 59 61 64 70 70 73 72
28 29 28 28 26 25 46 69 58 40 32 32 32 32 37 35 38 41 47 45 45 26 26 47 45 37 48 42 40 50 47 43 40 40 63 78 45 43 54 63 70 64 65 67 68
24 27 33 30 27 26 45 66 54 38 29 34 42 34 42 38 44 44 49 51 36 32 36 21 43 40 44 36 19 26 43 46 45 46 54 52 50 41 47 54 61 69 71 71 70
24 67 68 30 26 28 65 59 50 32 41 45 43 44 48 45 51 51 53 45 28 24 15 18 28 40 45 52 43 39 46 40 43 45 46 52 43 38 56 61 66 81 76 72 66
81 84 84 27 54 45 72 66 52 52 50 52 50 45 54 55 55 58 53 32 29 17 10 15 26 42 44 40 38 36 35 36 37 47 48 49 47 44 59 72 78 79 78 80 79
94 74 63 19 77 64 73 58 52 51 50 49 54 49 53 59 59 63 54 33 26 14 9 10 37 30 33 29 26 34 34 37 41 42 44 43 47 63 63 67 74 76 82 85 79
88 86 46 25 67 64 63 57 56 54 49 44 53 54 59 59 60 66 61 41 33 12 9 9 19 23 19 38 38 24 32 45 46 49 50 52 55 62 65 75 78 78 80 74 60
97 94 55 77 45 63 65 56 56 56 52 56 53 57 61 60 56 60 63 50 34 28 16 18 16 20 24 29 25 54 58 51 47 54 54 57 58 60 63 67 74 78 75 68 48

GFSSW_700_rhum_024.txt.gz
RH
24 20 18 16 12 11 8 7 7 15 19 20 20 19 16 11 17 15 10 11 9 6 5 5 4 4 6 13 18 18 16 16 18 32 33 25 25 33 33 30 41 42 39 32 20
21 17 15 13 14 14 10 8 7 11 12 14 13 12 12 18 12 10 15 13 10 14 14 14 11 13 16 16 18 17 14 14 21 25 24 25 22 20 23 29 33 33 34 30 20
17 14 14 16 17 16 12 8 6 8 9 11 9 12 18 21 37 29 10 13 15 17 18 21 20 20 17 19 18 16 15 15 17 18 16 12 13 13 12 16 16 14 20 34 43
14 16 17 18 18 16 12 9 6 8 11 8 12 18 24 42 41 13 14 17 18 17 19 19 19 18 18 15 15 11 11 12 12 12 12 12 13 20 18 19 24 21 18 14 20
16 18 19 20 18 16 13 8 8 11 9 9 20 27 41 40 30 13 16 19 21 20 26 25 21 21 20 19 14 13 12 10 11 12 10 12 14 16 18 22 26 27 22 29 27
18 19 20 19 18 16 12 9 9 10 8 19 19 39 45 42 33 22 17 29 23 28 29 24 22 20 19 16 13 12 11 11 10 14 14 12 14 16 17 17 17 26 25 34 45
20 21 21 19 17 15 12 10 9 9 18 22 20 44 44 37 34 26 27 31 34 33 28 23 22 20 17 13 14 14 7 5 3 11 14 13 16 18 16 16 17 16 23 38 48
23 22 20 19 14 12 11 9 11 20 24 19 32 40 45 33 33 29 28 30 32 32 27 22 21 20 19 18 16 16 20 22 19 17 10 14 18 22 20 17 20 23 23 35 46
23 22 19 14 12 11 10 16 25 26 23 16 21 41 40 30 28 29 21 20 26 28 21 21 22 21 18 17 15 18 21 22 23 24 24 25 23 22 20 22 24 24 22 36 49
22 20 15 12 12 15 24 29 28 25 19 17 28 31 29 22 18 24 18 14 15 12 10 19 17 16 22 19 20 20 21 20 22 24 25 27 22 23 22 23 26 23 22 32 44
20 19 13 13 22 29 30 29 28 21 15 19 35 34 30 28 23 14 11 9 10 16 17 21 26 26 23 23 20 22 22 22 24 25 24 21 21 23 24 24 28 29 27 25 29
18 16 16 27 31 34 34 34 25 22 28 37 39 29 22 26 21 12 14 20 21 26 32 32 30 27 24 18 13 25 24 25 25 24 22 24 27 27 28 28 27 24 27 27 26
18 23 31 35 36 38 42 38 37 41 38 35 33 28 29 30 25 14 23 24 29 30 30 31 28 19 26 26 19 28 28 30 31 29 20 25 32 31 33 32 34 34 33 33 34
28 32 35 38 60 85 56 49 51 47 36 36 35 26 33 34 27 24 30 28 28 26 28 27 26 24 26 27 27 33 36 36 32 28 18 31 36 51 42 40 42 40 38 38 43
34 37 43 46 76 66 60 54 47 44 48 28 29 30 34 33 19 24 26 27 24 28 28 30 24 32 36 36 34 25 23 24 35 27 31 41 35 55 48 43 43 40 38 42 43
37 43 46 52 62 58 48 44 47 51 37 35 31 21 39 39 37 14 25 29 28 25 31 32 35 28 36 32 42 36 39 39 42 43 46 41 38 49 49 42 45 46 48 46 43
38 46 42 50 52 63 39 40 46 58 30 33 22 24 31 34 29 18 20 30 35 33 33 34 38 27 36 46 41 38 39 46 56 69 62 46 46 52 43 44 44 44 49 52 55
39 43 38 37 44 55 36 39 60 33 32 26 34 36 34 39 40 38 32 38 37 40 40 43 47 42 27 44 45 44 41 43 65 71 51 45 57 66 51 53 56 60 67 71 71
38 40 38 35 40 42 36 43 55 35 29 32 35 38 36 39 40 40 41 39 41 44 41 47 42 40 22 27 47 48 39 42 48 56 56 56 61 62 59 59 63 76 80 78 79
40 36 38 39 41 35 33 63 56 36 33 30 37 39 38 37 40 45 44 44 27 44 44 46 46 39 49 40 33 29 38 43 40 58 54 50 57 59 61 60 64 74 79 72 75
40 36 35 34 41 32 28 72 55 36 33 33 35 36 37 33 34 44 45 44 32 46 41 47 37 34 43 43 44 45 47 37 38 44 62 79 48 47 60 63 66 73 70 76 75
34 33 33 32 36 33 21 71 61 42 33 34 35 36 36 36 40 45 45 42 34 26 26 45 33 44 44 28 23 35 38 33 32 45 51 51 49 53 50 53 64 68 70 72 79
27 26 30 30 30 29 32 60 57 46 35 34 41 38 39 38 45 47 46 46 31 28 21 32 38 42 48 45 37 44 51 41 39 40 42 47 42 49 54 54 58 60 65 75 78
26 63 56 28 26 24 70 62 57 37 47 41 46 46 47 44 45 47 50 45 34 26 19 21 32 36 35 36 32 35 37 37 38 43 45 47 45 46 51 52 57 64 69 76 81
44 70 68 32 26 22 72 68 62 44 50 49 41 42 49 53 53 50 50 46 30 21 10 17 23 36 40 40 39 37 27 30 36 38 45 44 46 44 57 64 66 70 78 81 85
80 74 67 55 59 36 72 60 55 46 50 50 43 43 54 55 48 43 45 35 28 19 10 10 18 22 32 22 20 25 23 30 36 38 50 54 55 64 64 67 71 77 80 84 89
88 82 54 31 76 66 61 57 58 58 51 49 51 56 60 58 58 58 54 52 30 22 11 12 11 20 18 22 41 25 27 40 43 44 48 52 51 54 60 71 77 78 78 81 79

GFSSW_700_rhum_027.txt.gz
RH
27 30 26 20 18 16 13 10 8 6 11 21 26 28 23 24 21 11 14 12 14 8 5 5 9 10 9 10 10 16 19 18 21 35 47 54 50 42 38 32 33 34 36 31 15
29 28 21 17 14 13 13 12 9 6 13 20 18 19 18 17 14 15 14 14 11 10 8 8 5 6 8 8 14 20 20 14 23 38 40 38 40 34 29 30 33 34 33 28 14
27 23 17 13 12 15 15 14 10 7 10 12 13 13 13 16 18 27 13 12 16 17 18 17 9 13 14 16 20 22 16 18 24 26 31 29 20 16 20 20 23 16 20 21 13
25 17 12 14 16 18 17 15 11 6 8 10 11 10 17 26 33 13 14 16 20 22 21 20 18 17 16 18 20 16 14 14 20 24 20 16 14 15 18 20 22 16 10 8 14
18 14 14 16 18 19 17 14 11 6 8 10 9 19 28 39 26 20 14 18 17 25 30 29 27 21 19 19 16 12 11 12 12 11 12 12 15 13 17 21 23 21 19 21 25
14 17 16 17 20 18 16 14 8 7 12 8 17 24 39 33 30 17 32 31 27 32 28 24 24 22 21 18 14 11 11 11 12 12 11 13 16 14 15 21 17 22 22 36 39
17 19 18 19 20 18 16 12 9 10 9 15 21 42 44 36 34 26 32 33 33 32 26 24 22 22 16 16 12 12 10 11 14 12 11 12 14 13 16 15 17 21 26 42 54
20 20 20 21 19 18 13 10 10 9 13 23 30 47 39 33 33 29 29 30 32 32 27 23 26 19 16 15 16 18 20 12 12 14 14 13 12 16 17 16 18 24 26 44 61
21 21 21 20 17 15 11 10 10 17 24 20 36 42 43 29 30 29 26 26 31 30 28 22 25 20 19 19 19 18 21 22 22 16 12 11 23 21 22 20 20 22 22 37 52
22 20 19 16 12 12 12 16 24 28 26 20 38 32 33 31 29 24 25 20 23 19 19 20 22 19 18 15 13 14 20 21 21 22 24 25 24 22 22 19 23 21 22 27 42
21 19 16 12 12 13 21 28 29 28 21 25 31 37 30 22 23 22 21 15 15 15 13 20 21 18 20 22 22 20 22 25 23 22 24 26 24 22 23 21 23 22 22 23 28
20 17 14 13 16 28 36 37 33 25 16 22 34 32 27 28 25 17 13 10 9 15 20 26 28 28 26 23 18 24 22 25 25 25 25 25 24 23 22 20 22 22 24 26 26
19 18 14 22 33 38 48 37 28 21 23 38 36 26 29 29 18 16 18 20 19 31 31 29 28 28 24 25 23 26 25 26 25 26 24 29 33 31 27 26 26 30 32 32 36
18 17 27 34 40 52 44 30 30 39 38 37 33 29 31 30 26 15 17 26 30 28 28 30 23 20 25 28 28 29 29 29 31 30 27 32 45 44 35 35 36 37 39 43 59
20 30 37 41 72 56 57 45 47 41 50 34 32 29 36 30 22 22 31 30 27 28 29 30 28 26 28 30 34 28 31 32 40 28 30 42 41 60 61 48 46 49 56 65 66
29 36 45 55 65 65 57 50 50 49 34 30 31 34 37 34 22 25 31 29 28 27 31 29 32 30 35 35 30 32 37 41 43 44 48 52 41 58 56 48 51 54 56 54 60
35 48 44 68 66 66 57 49 47 56 32 34 30 24 37 36 35 22 30 33 32 33 33 38 31 27 26 44 40 35 40 46 57 67 67 52 50 52 54 54 48 44 46 53 62
41 48 41 64 60 55 48 44 46 42 32 31 26 30 34 33 27 19 29 33 35 30 34 37 47 32 46 45 44 38 37 42 59 71 53 51 58 54 50 50 53 59 61 63 67
42 46 40 57 55 46 40 40 60 35 34 30 35 36 39 40 40 28 34 36 38 42 38 43 45 30 18 43 43 45 27 39 44 56 56 62 66 60 56 59 63 62 67 66 63
40 45 41 44 49 41 43 52 50 36 33 36 36 37 40 41 42 43 43 37 39 41 44 42 44 38 43 34 41 39 42 40 39 57 56 54 65 62 63 61 61 63 63 63 66
40 46 39 33 40 42 39 69 51 37 33 36 38 39 37 37 41 45 44 44 38 40 46 45 39 40 49 44 41 39 31 28 36 45 64 77 54 53 59 62 62 62 66 75 75
39 41 37 31 39 39 37 67 58 51 34 34 38 37 37 34 41 45 43 43 38 36 42 47 37 46 44 36 24 32 35 28 24 39 49 52 43 44 52 56 57 66 73 70 70
42 39 34 31 35 33 31 60 62 54 38 37 37 38 36 37 38 43 43 46 38 30 35 44 38 47 41 32 30 35 33 36 35 33 38 51 36 41 48 54 54 55 61 64 66
40 37 31 29 31 29 26 52 56 46 36 37 38 41 39 41 44 45 47 47 44 31 28 34 32 33 26 31 36 35 42 40 38 40 42 38 36 44 48 51 57 59 57 63 70
36 44 26 26 28 27 42 59 56 55 42 43 42 48 44 44 45 46 50 50 39 30 25 20 24 34 32 31 27 29 34 36 34 32 38 27 34 40 46 47 57 68 69 72 78
47 63 24 30 23 24 54 68 62 53 44 40 39 44 45 43 42 46 50 45 41 29 22 11 21 30 37 34 30 25 23 25 26 26 29 32 33 38 47 53 59 71 72 78 85
70 66 43 39 24 21 30 62 51 51 47 48 46 42 42 49 48 47 49 43 33 28 20 11 12 22 33 24 23 28 15 21 21 30 33 38 33 49 52 55 63 72 80 87 92

GFSSW_700_rhum_030.txt.gz
RH
39 36 24 26 27 21 17 15 12 10 8 8 16 24 32 32 27 26 17 13 12 13 10 8 9 11 11 13 19 25 19 21 20 28 59 61 59 57 57 52 49 40 36 26 20
33 26 25 27 24 17 13 13 12 11 8 11 20 28 28 23 21 15 14 13 15 11 4 5 6 8 8 9 27 18 24 21 17 35 41 37 33 42 65 48 38 37 36 24 16
27 25 26 26 19 13 14 15 15 12 8 12 20 20 18 15 15 34 20 18 14 12 12 11 8 6 8 20 25 19 18 20 17 33 36 38 41 54 41 28 22 27 35 22 15
25 25 25 22 14 15 17 17 16 12 8 9 12 12 12 16 31 20 15 15 17 18 18 18 13 8 14 15 17 18 16 15 26 32 34 30 33 43 25 22 19 21 28 21 16
26 26 24 15 14 17 18 18 16 13 7 9 10 10 15 27 29 22 16 16 19 26 28 25 19 19 18 17 20 18 14 15 27 26 21 25 25 19 20 22 21 22 24 24 16
26 25 17 16 17 19 19 19 15 10 7 9 9 14 28 33 27 23 31 24 30 32 29 24 23 25 22 20 18 12 12 14 20 18 15 16 18 15 17 19 21 25 31 41 42
26 19 16 18 19 20 19 18 14 7 8 10 10 25 38 34 27 32 31 31 34 30 26 26 26 24 20 19 14 11 11 12 13 13 13 19 16 14 15 16 19 25 36 47 52
21 15 19 20 21 20 18 16 11 8 10 10 22 38 37 37 30 32 31 33 34 31 24 24 26 20 17 16 12 14 9 13 13 12 12 12 11 12 16 16 19 24 37 48 52
17 18 20 22 21 19 16 12 10 10 10 18 33 44 42 34 31 30 29 32 30 31 24 23 24 18 14 15 15 20 21 17 14 14 14 14 17 17 20 19 19 23 24 40 55
20 20 22 21 20 18 14 12 11 11 17 24 43 39 42 36 32 28 27 27 30 28 21 21 25 18 17 19 19 17 20 21 22 22 21 16 16 24 26 22 20 22 22 27 41
21 22 22 19 15 15 13 11 18 23 24 26 38 32 33 33 30 28 26 21 18 22 16 19 22 22 22 19 20 21 21 22 22 22 23 24 26 26 22 24 20 23 23 25 27
22 22 21 14 15 13 16 28 27 24 24 28 34 35 34 25 26 24 21 18 14 15 22 25 24 23 24 23 22 22 23 24 25 22 23 24 25 24 22 24 20 22 25 26 28
22 21 17 15 16 28 34 34 33 31 22 25 30 35 27 30 26 21 17 15 11 24 27 27 29 28 25 24 21 24 26 28 28 28 26 25 27 26 24 24 22 23 24 26 29
22 20 15 18 32 49 42 35 30 23 25 34 38 29 32 32 27 19 20 20 20 32 29 28 28 28 26 25 25 28 30 32 31 31 29 30 34 36 32 25 23 24 28 36 43
22 18 19 35 58 44 51 32 40 38 46 37 34 29 32 31 24 21 22 31 29 30 26 27 24 24 24 26 24 27 33 33 31 30 28 36 36 41 41 38 35 37 44 54 67
21 21 36 44 58 50 50 44 44 42 41 35 30 30 38 34 27 31 33 30 28 30 28 26 27 27 30 33 34 31 28 32 40 44 51 53 45 43 38 37 39 50 60 70 67
24 35 44 57 65 67 51 52 50 50 31 32 29 36 38 35 27 30 32 29 30 33 32 34 34 32 31 39 35 34 38 46 59 67 70 55 53 42 45 47 53 50 58 60 62
36 44 47 69 68 70 56 53 46 54 29 31 27 35 39 35 29 23 33 31 31 29 33 35 37 35 33 38 42 40 42 46 57 77 62 49 55 48 47 58 60 60 59 60 66
41 52 51 67 67 66 54 48 53 44 35 29 30 32 38 34 29 27 32 35 35 32 29 41 44 33 33 47 46 40 30 39 42 54 57 56 58 50 47 53 53 58 58 61 63
44 53 50 65 62 61 49 44 51 42 35 25 29 35 37 41 34 32 30 37 37 41 36 41 44 34 28 38 45 47 42 39 38 56 53 54 62 51 48 49 53 58 58 61 56
48 53 49 56 58 54 43 44 50 44 34 33 37 38 38 41 42 42 39 40 36 40 44 45 42 42 40 42 35 40 36 29 30 43 62 75 52 41 52 57 57 60 62 62 67
47 51 46 46 52 49 39 59 58 47 36 36 37 37 38 40 41 44 43 42 42 38 47 47 44 40 44 43 41 43 41 28 21 35 48 51 34 33 42 59 64 64 68 68 71
48 49 45 42 45 42 38 64 60 52 45 37 40 39 38 39 42 43 42 43 45 33 41 47 42 43 45 36 29 28 31 29 29 29 35 57 26 28 36 42 53 63 65 70 74
46 48 44 40 38 37 38 45 60 57 41 40 39 37 38 40 37 39 43 45 48 37 34 43 39 33 33 26 25 28 26 27 31 32 29 25 21 27 34 43 46 50 50 62 70
53 45 40 37 33 33 36 34 58 53 40 38 42 43 41 43 44 45 47 48 48 42 34 28 34 36 33 28 28 32 30 22 26 27 32 18 22 25 32 39 50 57 60 64 71
55 51 36 28 27 29 33 31 51 50 46 34 46 45 47 48 45 46 48 51 49 41 31 27 24 24 33 35 34 29 26 24 27 28 25 22 18 21 28 40 46 50 56 66 77
50 47 33 28 27 26 28 43 55 46 47 46 44 40 45 46 46 48 46 47 43 40 29 25 14 18 26 25 30 31 12 11 10 12 17 20 15 26 25 33 38 49 61 72 82

GFSSW_700_rhum_033.txt.gz
RH
25 30 30 29 25 25 25 22 16 12 12 10 7 21 28 30 30 30 25 21 16 13 13 13 10 10 13 12 20 19 19 21 29 40 60 65 70 70 51 46 58 56 38 24 39
25 28 25 23 23 26 24 18 12 12 13 10 9 25 30 30 28 21 18 16 12 12 14 7 7 10 11 10 18 20 21 20 22 20 41 44 42 48 50 74 65 55 36 22 25
24 25 21 22 24 26 21 13 14 16 15 10 12 26 28 23 16 18 16 16 17 17 8 5 7 9 7 8 17 19 21 20 20 31 48 44 56 42 53 60 47 43 40 23 24
22 22 20 23 25 25 15 15 16 18 14 9 10 18 18 14 23 25 18 14 14 15 13 10 9 7 6 11 21 17 18 19 26 36 37 53 51 40 39 31 19 24 36 20 21
20 21 20 24 25 18 13 18 19 18 14 8 8 11 12 16 30 17 16 16 19 21 19 14 11 10 12 16 18 19 18 16 25 42 44 48 38 33 29 26 22 19 22 23 23
20 21 23 26 20 14 16 20 19 16 13 7 9 10 13 29 26 17 21 20 22 27 30 26 23 28 17 17 19 18 14 19 30 38 41 34 27 32 29 25 25 38 33 21 20
22 23 26 23 15 15 19 21 18 15 9 8 10 10 21 34 23 32 32 30 34 32 32 32 31 27 22 25 14 13 13 19 26 27 27 26 22 18 20 23 28 41 44 39 37
22 25 26 16 18 18 21 20 17 14 8 10 10 19 37 33 31 32 32 35 34 32 27 26 28 26 22 20 13 12 13 14 14 15 19 20 19 17 19 21 25 28 34 36 38
24 27 19 18 21 21 20 20 16 11 9 10 18 33 39 29 31 31 31 34 34 27 22 25 24 20 19 14 12 17 10 13 15 13 13 15 15 15 20 21 23 25 28 38 48
25 23 21 20 22 21 21 18 13 11 11 13 28 36 40 34 30 30 30 30 32 29 21 27 26 16 15 14 16 19 22 18 14 14 14 15 16 24 24 20 21 22 23 26 37
26 20 22 22 22 21 20 15 12 13 11 21 36 38 40 37 27 29 28 27 27 26 22 25 24 16 16 19 18 18 20 21 22 22 22 24 20 25 27 24 23 20 22 25 29
22 22 24 22 20 18 15 13 19 22 20 26 42 36 38 36 29 27 25 22 18 15 16 21 22 22 23 22 22 21 24 25 27 23 23 23 25 25 24 22 23 22 22 26 34
23 24 23 21 15 15 17 27 31 32 26 29 35 32 34 28 29 27 22 20 16 25 27 21 22 25 26 24 19 22 25 27 26 26 24 24 25 25 22 21 23 23 22 27 36
24 25 20 17 15 27 36 38 39 31 25 27 33 35 29 32 26 24 21 20 19 32 30 28 29 28 28 26 24 26 30 30 29 28 28 28 27 25 24 23 24 24 22 29 28
24 24 20 16 28 35 42 40 47 30 47 30 35 33 34 34 26 23 22 22 30 32 27 28 26 27 31 27 24 24 33 33 32 31 30 32 34 29 28 26 25 24 23 28 44
26 23 19 19 49 49 51 44 49 50 43 36 36 30 34 36 29 27 20 31 31 31 28 25 27 28 27 26 30 31 31 34 37 39 44 35 38 30 27 26 32 33 39 49 58
28 24 22 43 63 70 51 62 50 42 33 36 34 28 35 36 30 32 34 32 32 33 33 32 30 29 30 33 34 30 30 44 49 58 54 53 55 41 39 38 41 42 48 59 70
28 25 36 57 76 74 60 64 49 37 34 34 32 33 39 37 29 34 34 31 30 28 31 32 31 28 26 34 34 39 40 38 53 62 56 54 57 44 42 40 51 62 65 66 64
30 38 46 65 80 74 60 58 40 51 32 35 31 37 40 39 24 29 34 32 30 28 27 32 36 33 32 40 45 41 37 40 41 54 51 47 50 40 38 40 51 61 62 62 60
37 46 52 74 74 75 60 51 46 47 32 34 30 37 40 37 30 26 36 36 34 31 29 32 42 38 29 41 48 43 41 39 38 54 46 45 48 33 31 39 49 54 54 57 59
47 56 57 69 67 69 62 49 44 49 36 34 30 33 37 39 41 29 33 34 38 36 37 38 41 42 37 32 33 43 45 31 28 36 41 48 30 19 19 38 47 50 52 58 62
53 58 60 68 69 62 56 44 58 52 37 30 29 30 31 39 42 34 32 31 35 35 40 44 46 41 43 37 38 37 36 27 25 31 42 46 26 20 19 23 44 59 60 62 63
59 62 70 68 65 59 51 44 58 52 40 31 37 39 40 38 42 41 42 42 41 42 38 43 47 43 47 45 44 42 34 32 26 23 26 54 19 19 19 25 36 58 66 68 68
65 71 70 66 60 54 48 43 59 55 48 40 37 38 40 39 40 38 40 40 43 46 35 43 47 43 40 32 30 35 31 23 31 29 23 19 14 14 21 26 35 44 52 62 67
70 63 61 62 54 52 45 48 59 56 44 45 41 40 38 39 42 39 39 42 46 48 42 37 43 45 39 33 26 27 25 24 27 24 26 14 16 13 18 22 29 47 54 55 60
69 58 53 44 44 45 43 39 53 56 42 39 38 40 42 40 42 41 46 48 48 48 44 38 29 25 29 36 34 29 26 24 24 23 20 18 11 13 18 21 27 36 46 52 58
68 59 48 41 39 39 37 37 38 57 47 38 28 51 52 50 51 46 45 45 52 51 42 35 28 22 23 22 34 37 19 19 15 12 11 14 9 18 21 25 23 28 40 52 66